timestamp,wind_dir_avg,wind_spd_avg,wind_spd_max_dir,wind_spd_gust,battery_voltage,lat,long
2021-09-06 00:04:00+00:00,2.0,8.04,20.0,9.74,12.65,47.59359,-54.27349
2021-09-06 00:14:01+00:00,24.0,8.15,26.0,8.92,12.65,47.59359,-54.27349
2021-09-06 00:24:01+00:00,8.0,7.77,3.0,8.9,12.65,47.59359,-54.27349
2021-09-06 00:34:01+00:00,358.0,9.92,2.0,10.99,12.65,47.59359,-54.27349
2021-09-06 00:44:01+00:00,357.0,9.8,357.0,11.21,12.65,47.59359,-54.27349
2021-09-06 00:54:01+00:00,8.0,7.63,11.0,9.12,12.65,47.59359,-54.27349
2021-09-06 01:04:01+00:00,1.0,7.64,1.0,8.41,12.65,47.59359,-54.27349
2021-09-06 01:14:01+00:00,15.0,6.96,19.0,7.67,12.65,47.59359,-54.27349
2021-09-06 01:24:01+00:00,2.0,7.85,14.0,9.32,12.65,47.59359,-54.27349
2021-09-06 01:34:01+00:00,5.0,7.21,358.0,8.28,12.65,47.59359,-54.27349
2021-09-06 01:44:01+00:00,9.0,8.24,7.0,9.69,12.65,47.59359,-54.27349
2021-09-06 01:54:01+00:00,9.0,8.23,18.0,9.64,12.65,47.59359,-54.27349
2021-09-06 02:04:01+00:00,19.0,8.05,16.0,9.21,12.65,47.59359,-54.27349
2021-09-06 02:14:01+00:00,3.0,7.25,4.0,8.22,12.65,47.59359,-54.27349
2021-09-06 02:24:01+00:00,7.0,5.46,8.0,6.13,12.65,47.59359,-54.27349
2021-09-06 02:34:01+00:00,353.0,5.52,356.0,6.34,12.65,47.59359,-54.27349
2021-09-06 02:44:01+00:00,351.0,5.24,337.0,6.43,12.65,47.59359,-54.27349
2021-09-06 02:54:01+00:00,4.0,5.26,3.0,5.68,12.65,47.59359,-54.27349
2021-09-06 03:04:01+00:00,350.0,5.85,356.0,6.57,12.65,47.59359,-54.27349
2021-09-06 03:14:01+00:00,353.0,6.57,1.0,8.01,12.57,47.59359,-54.27349
2021-09-06 03:24:01+00:00,15.0,6.12,12.0,7.34,12.57,47.59359,-54.27349
2021-09-06 03:34:01+00:00,10.0,5.76,0.0,6.88,12.57,47.59359,-54.27349
2021-09-06 03:44:01+00:00,14.0,6.43,16.0,7.96,12.57,47.59359,-54.27349
2021-09-06 03:54:01+00:00,3.0,5.87,7.0,6.67,12.57,47.59359,-54.27349
2021-09-06 04:04:01+00:00,6.0,5.94,359.0,7.27,12.57,47.59359,-54.27349
2021-09-06 04:14:00+00:00,2.0,8.05,2.0,8.98,12.57,47.59359,-54.27349
2021-09-06 04:24:00+00:00,8.0,5.58,4.0,8.6,12.57,47.59359,-54.27349
2021-09-06 04:34:00+00:00,9.0,6.25,15.0,7.65,12.57,47.59359,-54.27349
2021-09-06 04:44:00+00:00,17.0,6.2,27.0,7.53,12.57,47.59359,-54.27349
2021-09-06 04:54:00+00:00,12.0,6.45,13.0,7.68,12.57,47.59359,-54.27349
2021-09-06 05:04:00+00:00,23.0,6.69,33.0,7.96,12.57,47.59359,-54.27349
2021-09-06 05:14:01+00:00,22.0,6.03,15.0,6.95,12.57,47.59359,-54.27349
2021-09-06 05:24:01+00:00,34.0,5.48,34.0,6.24,12.57,47.59359,-54.27349
2021-09-06 05:34:01+00:00,39.0,6.47,44.0,7.46,12.57,47.59359,-54.27349
2021-09-06 05:44:01+00:00,30.0,6.05,29.0,6.88,12.57,47.59359,-54.27349
2021-09-06 05:54:01+00:00,35.0,4.34,33.0,4.86,12.57,47.59359,-54.27349
2021-09-06 06:04:01+00:00,19.0,7.19,17.0,9.07,12.57,47.59359,-54.27349
2021-09-06 06:14:01+00:00,30.0,5.13,29.0,6.95,12.57,47.59359,-54.27349
2021-09-06 06:24:01+00:00,32.0,4.44,32.0,6.0,12.57,47.59359,-54.27349
2021-09-06 06:34:01+00:00,22.0,4.98,27.0,5.7,12.57,47.59359,-54.27349
2021-09-06 06:44:01+00:00,24.0,4.5,34.0,6.32,12.57,47.59359,-54.27349
2021-09-06 06:54:01+00:00,23.0,5.08,30.0,6.14,12.57,47.59359,-54.27349
2021-09-06 07:04:01+00:00,23.0,5.63,26.0,6.66,12.57,47.59359,-54.27349
2021-09-06 07:14:00+00:00,19.0,5.76,17.0,6.62,12.57,47.59359,-54.27349
2021-09-06 07:24:00+00:00,357.0,4.86,343.0,6.01,12.57,47.59359,-54.27349
2021-09-06 07:34:00+00:00,357.0,4.76,344.0,6.0,12.57,47.59359,-54.27349
2021-09-06 07:44:00+00:00,15.0,2.81,11.0,3.73,12.57,47.59359,-54.27349
2021-09-06 07:54:00+00:00,42.0,2.24,33.0,3.88,12.57,47.59359,-54.27349
2021-09-06 08:04:00+00:00,29.0,3.74,23.0,4.93,12.57,47.59359,-54.27349
2021-09-06 08:14:00+00:00,61.0,1.77,58.0,2.44,12.49,47.59359,-54.27349
2021-09-06 08:24:00+00:00,8.0,1.96,6.0,2.19,12.49,47.59359,-54.27349
2021-09-06 08:34:00+00:00,43.0,2.41,47.0,3.09,12.49,47.59359,-54.27349
2021-09-06 08:44:00+00:00,28.0,3.52,16.0,4.18,12.49,47.59359,-54.27349
2021-09-06 08:54:00+00:00,41.0,3.38,39.0,3.89,12.49,47.59359,-54.27349
2021-09-06 09:04:00+00:00,53.0,2.98,48.0,3.67,12.49,47.59359,-54.27349
2021-09-06 09:14:00+00:00,26.0,3.05,29.0,3.83,12.41,47.59359,-54.27349
2021-09-06 09:24:00+00:00,19.0,2.28,27.0,3.15,12.41,47.59359,-54.27349
2021-09-06 09:34:00+00:00,52.0,2.25,37.0,2.74,12.41,47.59359,-54.27349
2021-09-06 09:44:00+00:00,49.0,3.66,45.0,4.11,12.41,47.59359,-54.27349
2021-09-06 09:54:00+00:00,49.0,2.35,43.0,2.82,12.41,47.59359,-54.27349
2021-09-06 10:04:00+00:00,59.0,2.9,48.0,3.62,12.41,47.59359,-54.27349
2021-09-06 10:14:01+00:00,47.0,2.9,56.0,3.81,13.37,47.59359,-54.27349
2021-09-06 10:24:01+00:00,353.0,1.65,7.0,2.43,13.37,47.59359,-54.27349
2021-09-06 10:34:01+00:00,336.0,2.37,331.0,2.96,13.37,47.59359,-54.27349
2021-09-06 10:44:01+00:00,353.0,1.65,355.0,2.08,13.37,47.59359,-54.27349
2021-09-06 10:54:01+00:00,17.0,1.78,12.0,2.3,13.37,47.59359,-54.27349
2021-09-06 11:04:01+00:00,10.0,0.94,357.0,1.71,13.37,47.59359,-54.27349
2021-09-06 11:14:01+00:00,332.0,1.82,345.0,2.37,13.76,47.59359,-54.27349
2021-09-06 11:24:01+00:00,332.0,1.57,340.0,2.33,13.76,47.59359,-54.27349
2021-09-06 11:34:01+00:00,326.0,1.48,332.0,1.96,13.76,47.59359,-54.27349
2021-09-06 11:44:01+00:00,349.0,1.34,4.0,1.8,13.76,47.59359,-54.27349
2021-09-06 11:54:01+00:00,58.0,2.89,51.0,3.39,13.76,47.59359,-54.27349
2021-09-06 12:04:01+00:00,19.0,2.0,22.0,3.22,13.76,47.59359,-54.27349
2021-09-06 12:14:01+00:00,328.0,0.9,310.0,1.51,13.84,47.59359,-54.27349
2021-09-06 12:24:01+00:00,304.0,1.14,312.0,1.47,13.84,47.59359,-54.27349
2021-09-06 12:34:01+00:00,12.0,0.62,10.0,1.13,13.84,47.59359,-54.27349
2021-09-06 12:44:01+00:00,277.0,2.14,295.0,2.78,13.84,47.59359,-54.27349
2021-09-06 12:54:01+00:00,289.0,0.76,292.0,1.05,13.84,47.59359,-54.27349
2021-09-06 13:04:01+00:00,207.0,1.01,206.0,1.38,13.84,47.59359,-54.27349
2021-09-06 13:14:01+00:00,132.0,0.78,116.0,1.39,13.84,47.59359,-54.27349
2021-09-06 13:24:01+00:00,183.0,0.5,186.0,0.74,13.84,47.59359,-54.27349
2021-09-06 13:34:01+00:00,124.0,1.59,121.0,1.95,13.84,47.59359,-54.27349
2021-09-06 13:44:01+00:00,180.0,0.91,177.0,1.4,13.84,47.59359,-54.27349
2021-09-06 13:54:01+00:00,160.0,1.74,164.0,2.05,13.84,47.59359,-54.27349
2021-09-06 14:04:01+00:00,240.0,1.15,248.0,1.57,13.84,47.59359,-54.27349
2021-09-06 14:14:01+00:00,230.0,1.92,228.0,2.4,14.32,47.59359,-54.27349
2021-09-06 14:24:01+00:00,229.0,1.58,218.0,2.41,14.32,47.59359,-54.27349
2021-09-06 14:34:01+00:00,208.0,1.29,219.0,2.36,14.32,47.59359,-54.27349
2021-09-06 14:44:01+00:00,195.0,1.28,189.0,2.02,14.32,47.59359,-54.27349
2021-09-06 14:54:01+00:00,198.0,1.29,228.0,1.67,14.32,47.59359,-54.27349
2021-09-06 15:04:01+00:00,223.0,1.66,233.0,2.28,14.32,47.59359,-54.27349
2021-09-06 15:14:01+00:00,197.0,2.66,206.0,3.04,13.76,47.59359,-54.27349
2021-09-06 15:24:01+00:00,197.0,2.65,194.0,3.19,13.76,47.59359,-54.27349
2021-09-06 15:34:01+00:00,179.0,2.59,185.0,2.97,13.76,47.59359,-54.27349
2021-09-06 15:44:01+00:00,192.0,3.24,196.0,3.48,13.76,47.59359,-54.27349
2021-09-06 15:54:01+00:00,199.0,3.33,195.0,3.67,13.76,47.59359,-54.27349
2021-09-06 16:04:01+00:00,210.0,3.58,212.0,3.92,13.76,47.59359,-54.27349
2021-09-06 16:14:01+00:00,210.0,4.75,213.0,5.43,13.68,47.59359,-54.27349
2021-09-06 16:24:01+00:00,202.0,4.12,214.0,4.93,13.68,47.59359,-54.27349
2021-09-06 16:34:01+00:00,190.0,4.45,210.0,5.33,13.68,47.59359,-54.27349
2021-09-06 16:44:01+00:00,190.0,3.7,194.0,4.19,13.68,47.59359,-54.27349
2021-09-06 16:54:01+00:00,184.0,2.97,178.0,3.57,13.68,47.59359,-54.27349
2021-09-06 17:04:01+00:00,205.0,2.97,202.0,3.84,13.68,47.59359,-54.27349
2021-09-06 17:14:01+00:00,191.0,3.12,184.0,3.53,13.68,47.59359,-54.27349
2021-09-06 17:24:01+00:00,218.0,4.35,223.0,5.06,13.68,47.59359,-54.27349
2021-09-06 17:34:01+00:00,228.0,4.79,228.0,5.62,13.68,47.59359,-54.27349
2021-09-06 17:44:01+00:00,208.0,3.99,215.0,5.16,13.68,47.59359,-54.27349
2021-09-06 17:54:01+00:00,193.0,3.97,195.0,4.47,13.68,47.59359,-54.27349
2021-09-06 18:04:01+00:00,196.0,4.08,197.0,4.53,13.68,47.59359,-54.27349
2021-09-06 18:14:01+00:00,207.0,4.78,207.0,5.39,14.0,47.59359,-54.27349
2021-09-06 18:24:01+00:00,214.0,5.58,212.0,6.23,14.0,47.59359,-54.27349
2021-09-06 18:34:01+00:00,206.0,5.12,202.0,5.66,14.0,47.59359,-54.27349
2021-09-06 18:44:01+00:00,208.0,4.85,208.0,5.82,14.0,47.59359,-54.27349
2021-09-06 18:54:01+00:00,211.0,5.67,206.0,6.17,14.0,47.59359,-54.27349
2021-09-06 19:04:01+00:00,212.0,5.18,217.0,5.71,14.0,47.59359,-54.27349
2021-09-06 19:14:01+00:00,209.0,5.96,209.0,6.37,13.92,47.59359,-54.27349
2021-09-06 19:24:01+00:00,212.0,6.27,213.0,6.95,13.92,47.59359,-54.27349
2021-09-06 19:34:01+00:00,205.0,5.77,212.0,6.77,13.92,47.59359,-54.27349
2021-09-06 19:44:01+00:00,214.0,5.13,215.0,5.61,13.92,47.59359,-54.27349
2021-09-06 19:54:01+00:00,212.0,5.53,215.0,6.02,13.92,47.59359,-54.27349
2021-09-06 20:04:01+00:00,216.0,5.55,212.0,6.41,13.92,47.59359,-54.27349
2021-09-06 20:14:01+00:00,222.0,6.0,224.0,6.54,13.84,47.59359,-54.27349
2021-09-06 20:24:01+00:00,227.0,5.54,229.0,6.28,13.84,47.59359,-54.27349
2021-09-06 20:34:01+00:00,227.0,5.65,224.0,6.27,13.84,47.59359,-54.27349
2021-09-06 20:44:01+00:00,225.0,4.68,226.0,5.43,13.84,47.59359,-54.27349
2021-09-06 20:54:01+00:00,214.0,4.39,212.0,5.03,13.84,47.59359,-54.27349
2021-09-06 21:04:01+00:00,210.0,4.07,212.0,4.95,13.84,47.59359,-54.27349
2021-09-06 21:14:01+00:00,224.0,4.54,227.0,5.02,13.53,47.59359,-54.27349
2021-09-06 21:24:01+00:00,229.0,4.38,219.0,5.37,13.53,47.59359,-54.27349
2021-09-06 21:34:01+00:00,236.0,5.36,239.0,5.96,13.53,47.59359,-54.27349
2021-09-06 21:44:01+00:00,236.0,6.19,234.0,7.14,13.53,47.59359,-54.27349
2021-09-06 21:54:01+00:00,234.0,5.72,233.0,6.7,13.53,47.59359,-54.27349
2021-09-06 22:04:01+00:00,231.0,4.98,231.0,6.28,13.53,47.59359,-54.27349
2021-09-06 22:14:01+00:00,218.0,5.85,216.0,6.54,13.13,47.59359,-54.27349
2021-09-06 22:24:01+00:00,219.0,6.05,222.0,6.55,13.13,47.59359,-54.27349
2021-09-06 22:34:01+00:00,214.0,6.22,217.0,6.87,13.13,47.59359,-54.27349
2021-09-06 22:44:01+00:00,229.0,4.66,223.0,5.49,13.13,47.59359,-54.27349
2021-09-06 22:54:01+00:00,210.0,5.83,211.0,6.65,13.13,47.59359,-54.27349
2021-09-06 23:04:01+00:00,219.0,5.03,223.0,6.17,13.13,47.59359,-54.27349
2021-09-06 23:14:00+00:00,214.0,5.8,209.0,7.18,12.65,47.59359,-54.27349
2021-09-06 23:24:00+00:00,218.0,5.42,215.0,6.57,12.65,47.59359,-54.27349
2021-09-06 23:34:00+00:00,227.0,5.64,229.0,6.94,12.65,47.59359,-54.27349
2021-09-06 23:44:00+00:00,212.0,4.64,209.0,5.56,12.65,47.59359,-54.27349
2021-09-06 23:54:00+00:00,180.0,4.88,182.0,5.49,12.65,47.59359,-54.27349
